Moab, UT

8:42 AM MDT on October 19, 2019 (GMT -0600)
Canyonlands

Weather History for KCNY - August, 2019

Change the Weather History Date:

Tuesday, August 20, 2019

  Actual Average Record
Temperature  
Mean Temperature 78 °F 76 °F  
Max Temperature 100 °F 91 °F 107 °F (1992)
Min Temperature 55 °F 61 °F 42 °F (1930)
Degree Days  
Heating Degree Days 0 0  
Month to date heating degree days 0 0  
Since 1 June heating degree days 23 17  
Since 1 July heating degree days 0 0  
Cooling Degree Days 13 11  
Month to date cooling degree days 316 268  
Year to date cooling degree days 1089 1061  
Since 1 June cooling degree days 1074 997  
Growing Degree Days 28 (Base 50)    
Moisture  
Dew Point 21 °F    
Average Humidity 15    
Maximum Humidity 23    
Minimum Humidity 6    
Precipitation  
Precipitation 0.00 in 0.02 in 0.21 in (2011)
Month to date precipitation 0.02 0.53  
Year to date precipitation 6.17 5.07  
Sea Level Pressure  
Sea Level Pressure 29.86 in    
Wind  
Wind Speed 5 mph (WNW)    
Max Wind Speed 15 mph    
Max Gust Speed 27 mph    
Visibility 10 miles    
Events      
T = Trace of Precipitation, MM = Missing Value Source: NWS Daily Summary

Daily Weather History Graph

Daily Weather History Graph

Search for Another Location

Airport or City:

Astronomy

Aug. 20, 2019 Rise Set
Actual Time 6:37 AM MDT 8:06 PM MDT
Civil Twilight 6:09 AM MDT 8:34 PM MDT
Nautical Twilight 5:35 AM MDT 9:08 PM MDT
Astronomical Twilight 4:59 AM MDT 9:43 PM MDT
Moon 11:00 PM MDT (8/20) 11:15 AM MDT (8/20)
Length of Visible Light 14h 25m
Length of Day
13h 29m
Waning Gibbous, 77% of the Moon is Illuminated
Aug 20
Waning Gibbous
Aug 23
Last Quarter
Aug 30
New
Sep 5
First Quarter
Sep 13
Full

Hourly Weather History & Observations

Time (MDT) Temp. Dew Point Humidity Pressure Visibility Wind Dir Wind Speed Gust Speed Precip Events Conditions
12:53 AM 73.0 °F 21.0 °F 14% 29.83 in 10.0 mi Calm Calm - N/A   Clear
1:53 AM 68.0 °F 21.0 °F 17% 29.85 in 10.0 mi SW 3.5 mph - N/A   Clear
2:53 AM 70.0 °F 21.0 °F 16% 29.85 in 10.0 mi NNW 3.5 mph - N/A   Clear
3:53 AM 68.0 °F 21.0 °F 17% 29.86 in 10.0 mi West 3.5 mph - N/A   Clear
4:53 AM 63.0 °F 21.0 °F 20% 29.88 in 10.0 mi WSW 3.5 mph - N/A   Clear
6:53 AM 57.0 °F 19.9 °F 24% 29.94 in 10.0 mi West 3.5 mph - N/A   Clear
7:53 AM 68.0 °F 23.0 °F 18% 29.95 in 10.0 mi Calm Calm - N/A   Clear
8:53 AM 75.0 °F 26.1 °F 16% 29.95 in 10.0 mi SE 3.5 mph - N/A   Clear
9:53 AM 82.9 °F 27.0 °F 13% 29.94 in 10.0 mi ESE 5.8 mph - N/A   Clear
10:53 AM 87.1 °F 26.1 °F 11% 29.94 in 10.0 mi ENE 5.8 mph - N/A   Clear
11:53 AM 91.0 °F 24.1 °F 9% 29.94 in 10.0 mi NW 3.5 mph - N/A   Clear
12:53 PM 91.9 °F 18.0 °F 7% 29.91 in 10.0 mi Variable 3.5 mph - N/A   Clear
1:53 PM 95.0 °F 18.0 °F 6% 29.89 in 10.0 mi Variable 4.6 mph - N/A   Clear
2:53 PM 96.1 °F 19.9 °F 6% 29.86 in 10.0 mi Variable 4.6 mph - N/A   Clear
3:53 PM 97.0 °F 19.0 °F 6% 29.83 in 10.0 mi West 11.5 mph 16.1 mph N/A   Clear
4:53 PM 99.0 °F 19.0 °F 6% 29.81 in 10.0 mi North 10.4 mph - N/A   Clear
5:53 PM 98.1 °F 19.0 °F 6% 29.81 in 10.0 mi NE 4.6 mph 18.4 mph N/A   Clear
6:53 PM 97.0 °F 19.0 °F 6% 29.80 in 10.0 mi NNW 9.2 mph - N/A   Clear
7:53 PM 91.0 °F 19.0 °F 7% 29.79 in 10.0 mi NNW 4.6 mph - N/A   Clear
8:53 PM 82.9 °F 17.1 °F 9% 29.80 in 10.0 mi NNW 6.9 mph - N/A   Clear
9:53 PM 79.0 °F 18.0 °F 10% 29.81 in 10.0 mi WSW 4.6 mph - N/A   Clear
10:53 PM 79.0 °F 19.0 °F 11% 29.80 in 10.0 mi West 4.6 mph - N/A   Clear
11:53 PM 72.0 °F 19.0 °F 13% 29.80 in 10.0 mi West 3.5 mph - N/A   Clear